Home > Weather > Rarotonga > Past weeks

Flag for Cook Islands Weather for the Past 2 Weeks in Rarotonga, Cook Islands

Now
82 °F

Passing clouds.


Feels Like: 92 °F
Forecast: 77 / 88 °F
Wind: 1 mph from Northeast

Location: Rarotonga

Current Time: Feb 11, 2016 at 1:15:12 AM

Latest Report: Feb 11, 2016 at 12:00 AM


Visibility: N/A

Pressure: 29.92 "Hg

Humidity: 89%

Dew point: 79 °F

Location of RarotongaLocation

Historic Weather in Rarotonga — Graph

°F

Rarotonga Temperature Yesterday

Maximum temperature yesterday: 90 °F (at 2:00 PM)
Minimum temperature yesterday: 81 °F (at 4:00 AM)
Average temperature yesterday: 84 °F

High & Low Weather Summary for the Past Weeks

 TemperatureHumidityPressure
High90 °F (Feb 10, 2:00 PM)94% (Feb 6, 5:00 AM)30.04 "Hg (Feb 6, 5:00 AM)
Low73 °F (Jan 30, 3:00 AM)55% (Jan 27, 12:00 PM)29.77 "Hg (Feb 8, 4:00 AM)
Average81 °F80%29.91 "Hg
* Reported Midnight between Jan 26 and Jan 27 — Midnight between Feb 10 and Feb 11, Rarotonga, Weather by CustomWeather, © 2016

Note: Actual official high and low records may vary slightly from our data, if they occured in-between our weather recording intervals... More about our weather records

Advertising

Rarotonga Weather History for the Previous 24 Hours

 ConditionsComfort  
Time TempWeatherWind HumidityBarometerVisibility
12:00 AM
Thu, Feb 11
82 °FPassing clouds.1 mph89%29.92 "HgN/A
11:00 PM
Wed, Feb 10
82 °FPassing clouds.1 mph89%29.95 "HgN/A
10:00 PM82 °FPassing clouds.6 mph89%29.92 "HgN/A
9:00 PM82 °FPassing clouds.6 mph89%29.89 "HgN/A
8:00 PM82 °FPassing clouds.7 mph89%29.89 "HgN/A
7:00 PM84 °FScattered clouds.6 mph84%29.86 "HgN/A
6:00 PM86 °FPassing clouds.6 mph79%29.86 "HgN/A
5:00 PM88 °FPassing clouds.6 mph75%29.86 "HgN/A
4:00 PM86 °FPassing clouds.7 mph79%29.86 "HgN/A
3:00 PM88 °FScattered clouds.7 mph75%29.86 "HgN/A
2:00 PM90 °FScattered clouds.7 mph79%29.89 "HgN/A
1:00 PM88 °FScattered clouds.7 mph79%29.92 "HgN/A
12:00 PM86 °FPassing clouds.7 mph84%29.92 "HgN/A
11:00 AM88 °FBroken clouds.7 mph79%29.95 "HgN/A
10:00 AM84 °FBroken clouds.7 mph89%29.95 "HgN/A
9:00 AM84 °FRain. Cloudy.N/A84%29.95 "HgN/A
8:00 AM81 °FScattered clouds.3 mph94%29.92 "HgN/A
7:00 AM81 °FBroken clouds.3 mph94%29.92 "HgN/A
6:00 AM82 °FPartly cloudy.2 mph89%29.92 "HgN/A
5:00 AM81 °FPartly cloudy.6 mph94%29.89 "HgN/A
4:00 AM81 °FPartly cloudy.5 mph94%29.89 "HgN/A
3:00 AM82 °FPartly cloudy.6 mph84%29.89 "HgN/A
2:00 AM82 °FPartly cloudy.8 mph84%29.89 "HgN/A
1:00 AM82 °FPassing clouds.8 mph89%29.86 "HgN/A
Weather by CustomWeather, © 2016

See weather overviewHow to use our weather pages